Location: Baller�as
(41.9020°N, 0.1554°W)
Time: 12:09:29
(UTC+00:00)

Cosmos 2228 Rocket - Pass Details

Date: 10 August 2020
Orbit: 617 x 653 km, 82.5° (Epoch: 22 September)

Event Time Altitude Azimuth Distance (km) Brightness Sun altitude
Rises 19:56:39 0° 350° (N) 2,918 7.1 -9.1°
Reaches altitude 10° 19:58:54 10° 350° (N) 2,002 6.3 -9.5°
Maximum altitude 20:03:20 80° 263° (W) 634 3.2 -10.2°
Drops below altitude 10° 20:07:42 10° 177° (S) 1,975 5.3 -10.9°
Enters shadow 20:09:46 - 177° (S) 2,816 6.1 -11.2°
